Simultaneous Nadir Overpasses (SNOs) Predictions

Prediction of SNOs between FY3D and AQUA Satellite Orbit:

Table of predicted SNOs for the next 14.0 days since TLE Epoch: 9/7/2019
Index Date (FY3D) Time (FY3D) Lat,Lon (FY3D) SZA (FY3D ) Date (AQUA) Time (AQUA) Lat,Lon (AQUA) SZA (AQUA ) Distance(km) Time Diff (sec)
1 09/08/2019 08:39:02 67.63, -85.75 100.30 09/08/2019 08:40:01 67.63, -85.75 100.23 0.05 59
2 09/08/2019 09:28:52 -70.60, 85.70 82.75 09/08/2019 09:28:35 -70.60, 85.76 82.75 2.36 17
3 09/11/2019 00:55:30 67.55, 30.04 101.30 09/11/2019 00:56:31 67.55, 30.04 101.23 0.06 61
4 09/11/2019 01:45:04 -71.35,-157.15 82.62 09/11/2019 01:44:50 -71.34,-157.21 82.58 2.44 14
5 09/13/2019 17:11:57 67.51, 145.89 102.25 09/13/2019 17:13:00 67.51, 145.88 102.18 0.25 63
6 09/13/2019 18:01:32 -71.27, -41.40 81.60 09/13/2019 18:01:20 -71.26, -41.46 81.57 2.44 12
7 09/16/2019 09:28:22 67.59, -98.14 103.10 09/16/2019 09:29:27 67.58, -98.16 103.03 0.81 65
8 09/16/2019 10:18:15 -70.41, 73.06 79.77 09/16/2019 10:18:04 -70.41, 73.12 79.78 2.36 11
9 09/19/2019 01:44:44 67.77, 17.97 103.84 09/19/2019 01:45:51 67.76, 17.93 103.78 1.70 67
10 09/19/2019 02:34:39 -70.48,-170.94 78.90 09/19/2019 02:34:30 -70.48,-170.90 78.91 1.63 9




NCC Satellite Simultaneous Nadir Overpasses (SNOs) Prediction Service
